Location: Asheville, NC
(35.6000°N, 82.5500°W)
Time: 17:13:56
(UTC-05:00)

XW-2B - Pass Details

Date: 11 January 2018
Orbit: 511 x 531 km, 97.5° (Epoch: 21 January)

Event Time Altitude Azimuth Distance (km) Brightness Sun altitude
Rises 18:18:55 0° 184° (S) 2,653 ? -8.7°
Reaches altitude 10° 18:21:07 10° 193° (SSW) 1,768 ? -9.1°
Maximum altitude 18:24:41 37° 262° (W) 832 ? -9.8°
Drops below altitude 10° 18:28:16 10° 331° (NNW) 1,779 ? -10.5°
Sets 18:30:30 0° 339° (NNW) 2,671 ? -10.9°
